Regional Weather Roundup
Issued by NWS

Home | Current Version | Previous Version | Graphics & Text | Print | Product List | Glossary On
Versions: 1 2 3 4 5 6 7 8 9 10 11 12 13 14 15 16 17 18 19 20 21 22 23 24 25 26 27 28 29 30 31 32 33 34 35 36 37 38 39 40 41 42 43 44 45 46 47 48 49 50
682
ASUS43 KBIS 052310
RWRND

NORTH DAKOTA REGIONAL WEATHER ROUNDUP
NATIONAL WEATHER SERVICE BISMARCK ND
500 PM CST MON DEC 05 2016

NOTE: "FAIR" INDICATES FEW OR NO CLOUDS BELOW 12,000 FEET WITH NO
SIGNIFICANT WEATHER AND/OR OBSTRUCTIONS TO VISIBILITY.


NDZ001>003-009>011-017-060000-
NORTHWEST NORTH DAKOTA

CITY           SKY/WX    TMP DP  RH WIND       PRES   REMARKS
WILLISTON      SNOW      12   8  84 NW28G41   29.81R VSB 1/4 WCI  -9
MINOT          CLOUDY    22  19  89 W21       29.61R WCI   6
MINOT AFB      CLOUDY    21  19  91 NW22      29.60R FOG     WCI   5
$$

NDZ018>021-031>035-040>046-060000-
SOUTHWEST NORTH DAKOTA

CITY           SKY/WX    TMP DP  RH WIND       PRES   REMARKS
BISMARCK       MIX PCPN  22  18  85 NW20G36   29.67R FOG     WCI   7
DICKINSON      SNOW      10   6  84 NW32G43   29.74R VSB 1/2 WCI -13
GARRISON         N/A     19  15  84 NW29G39   29.64R WCI   0
HETTINGER ARPT PTCLDY    13   7  77 NW28G38   29.76R WCI  -8
$$

NDZ004>008-012>016-024-026-027-054-060000-
NORTHEAST NORTH DAKOTA

CITY           SKY/WX    TMP DP  RH WIND       PRES   REMARKS
GRAND FORKS    CLOUDY    31  28  89 NE9       29.60F
GRND FRKS AFB  CLOUDY    30  27  91 NE13      29.59F WCI  20
DEVILS LAKE    LGT SNOW  26  25  96 NE10      29.60S FOG     WCI  16
$$

NDZ022-023-025-028>030-036>039-047>053-060000-
SOUTHEAST NORTH DAKOTA

CITY           SKY/WX    TMP DP  RH WIND       PRES   REMARKS
FARGO          FLURRIES  35  29  78 E8        29.53S
JAMESTOWN      LGT SNOW  28  26  92 N10       29.54R VSB 3/4 WCI  19
$$





USA.gov is the U.S. government's official web portal to all federal, state and local government web resources and services.